Погода в Боровой

Украина / Киевская область     50°10′23″N   30°06′13″E
темп.,
°C
ветер,
м/с
пор.,
м/с
влажн.,
%
обл.,
%
осадки,
мм/ч
давл.,
гПа
погр.,
м
19 апреля, пн
пн1900:00+4в2393100 0.0 101960
03:00+3всв2394100 0.0 101851
06:00+3св239598 0.0 101860
09:00+7всв3480100 0.0 1018408
12:00+11всв346285 0.1 10171344
15:00+11св3455100 0.1 10161471
18:00+10св3669100 0.0 1015287
21:00+7св2276100 0.1 101610
20 апреля, вт
вт2000:00+7с2381100 0.1 101471
03:00+7ссв368894 0.1 1012189
06:00+5с489775 0.1 1011278
09:00+6ссв458695 0.1 1012538
12:00+8с4575100 0.0 1011863
15:00+9ссз5671100 0.0 10101090
18:00+8сз4776100 0.0 1009494
21:00+7сз4884100 0.1 1010439
21 апреля, ср
ср2100:00+6сз3787100 0.1 1010283
03:00+6зсз3691100 0.1 1010209
06:00+3зсз379546 0.0 1012178
09:00+6з2584100 0.0 1013239
12:00+10зюз356967 0.0 1013874
15:00+13зюз5755100 0.5 10121602
18:00+13юз485365 0.3 10121747
21:00+8ююз387581 0.3 1013148
22 апреля, чт
чт2200:00+7ююз497835 0.0 1014190
03:00+6юз38915 0.0 1014142
06:00+5юз37935 0.0 1015121
09:00+11юз47695 0.0 1016402
12:00+15юз57535 0.3 10161604
15:00+16зюз575127 0.6 10151725
18:00+13з4869100 0.4 1016385
21:00+9ю118887 0.6 101612
23 апреля, пт
пт2300:00+9ю3484100 0.0 101655
03:00+8ю38855 0.0 1015125
06:00+7ю388989 0.0 1014165
09:00+11зюз477516 0.1 1014582
12:00+7сз7784100 0.0 1016665
15:00+5зсз4787100 0.8 1017526
18:00+9з4867100 0.0 10161187
21:00+6зюз33773 0.0 101752